Jamestown, NY

4:15 PM EDT on April 30, 2017 (GMT -0400)
Chautauqua County-Jamestown

Weather History for KJHW - May, 2014

Change the Weather History Date:

Thursday, May 15, 2014

  Actual Average Record
Temperature  
Mean Temperature 58 °F -  
Max Temperature 69 °F 68 °F 88 °F (1991)
Min Temperature 48 °F 41 °F 29 °F (1977)
Degree Days  
Heating Degree Days 6    
Growing Degree Days 8 (Base 50)    
Moisture  
Dew Point 56 °F    
Average Humidity 81    
Maximum Humidity 94    
Minimum Humidity 64    
Precipitation  
Precipitation 0.52 in - - ()
Sea Level Pressure  
Sea Level Pressure 29.94 in    
Wind  
Wind Speed 13 mph (South)    
Max Wind Speed 25 mph    
Max Gust Speed 34 mph    
Visibility 9 miles    
Events      
Averages and records for this station are not official NWS values.
T = Trace of Precipitation, MM = Missing Value Source: NWS Daily Summary

Daily Weather History Graph

Daily Weather History Graph

Search for Another Location

Airport or City:

Trip Planner

Search our weather history database for the weather conditions in past years. The results will help you decide how hot, cold, wet, or windy it might be!

Date:

Astronomy

May. 15, 2014 Rise Set
Actual Time 5:56 AM EDT 8:31 PM EDT
Civil Twilight 5:24 AM EDT 9:03 PM EDT
Nautical Twilight 4:44 AM EDT 9:43 PM EDT
Astronomical Twilight 3:59 AM EDT 10:29 PM EDT
Moon 9:37 PM EDT (5/15) 6:41 AM EDT (5/15)
Length of Visible Light 15h 39m
Length of Day
14h 35m
Full, 99% of the Moon is Illuminated
May 15
Full
May 21
Last Quarter
May 28
New
Jun 5
First Quarter
Jun 13
Full

Hourly Weather History & Observations

Time (EDT) Temp. Dew Point Humidity Pressure Visibility Wind Dir Wind Speed Gust Speed Precip Events Conditions
12:15 AM 62.6 °F 59.0 °F 88% 30.04 in 10.0 mi SSE 10.4 mph - N/A   Partly Cloudy
12:35 AM 62.6 °F 59.0 °F 88% 30.04 in 10.0 mi SE 10.4 mph - N/A   Partly Cloudy
12:55 AM 64.4 °F 57.2 °F 77% 30.03 in 10.0 mi SSE 9.2 mph 16.1 mph N/A   Mostly Cloudy
1:15 AM 62.6 °F 57.2 °F 82% 30.03 in 10.0 mi SSE 10.4 mph 18.4 mph N/A   Overcast
1:35 AM 62.6 °F 57.2 °F 82% 30.03 in 10.0 mi South 9.2 mph - N/A   Overcast
1:55 AM 64.4 °F 57.2 °F 77% 30.02 in 10.0 mi South 6.9 mph - N/A   Overcast
2:15 AM 64.4 °F 59.0 °F 83% 30.01 in 10.0 mi South 10.4 mph - N/A   Overcast
2:35 AM 64.4 °F 57.2 °F 77% 30.00 in 10.0 mi SSE 10.4 mph 16.1 mph N/A   Mostly Cloudy
2:55 AM 64.4 °F 57.2 °F 77% 29.99 in 10.0 mi SSE 6.9 mph 16.1 mph N/A   Partly Cloudy
3:15 AM 62.6 °F 57.2 °F 82% 29.98 in 10.0 mi SSE 13.8 mph 18.4 mph N/A   Clear
3:35 AM 64.4 °F 57.2 °F 77% 29.98 in 10.0 mi SSE 13.8 mph 21.9 mph N/A   Clear
3:55 AM 64.4 °F 57.2 °F 77% 29.97 in 10.0 mi SSE 18.4 mph 25.3 mph N/A   Clear
4:15 AM 62.6 °F 57.2 °F 82% 29.97 in 10.0 mi SSE 15.0 mph 20.7 mph N/A   Clear
4:35 AM 62.6 °F 57.2 °F 82% 29.97 in 10.0 mi SSE 15.0 mph - N/A   Clear
4:55 AM 62.6 °F 57.2 °F 82% 29.96 in 10.0 mi SSE 16.1 mph 21.9 mph N/A   Clear
5:15 AM 62.6 °F 57.2 °F 82% 29.95 in 10.0 mi SSE 12.7 mph 23.0 mph N/A   Clear
5:35 AM 62.6 °F 57.2 °F 82% 29.95 in 10.0 mi SSE 11.5 mph 18.4 mph N/A   Clear
5:55 AM 62.6 °F 57.2 °F 82% 29.95 in 10.0 mi SSE 17.3 mph 20.7 mph N/A   Clear
6:15 AM 62.6 °F 57.2 °F 82% 29.95 in 10.0 mi SSE 16.1 mph 21.9 mph N/A   Partly Cloudy
6:35 AM 62.6 °F 57.2 °F 82% 29.95 in 10.0 mi SSE 16.1 mph 21.9 mph N/A   Clear
6:55 AM 64.4 °F 57.2 °F 77% 29.95 in 10.0 mi SSE 15.0 mph 24.2 mph N/A   Clear
7:15 AM 64.4 °F 57.2 °F 77% 29.95 in 10.0 mi SSE 16.1 mph 19.6 mph N/A   Partly Cloudy
7:35 AM 64.4 °F 57.2 °F 77% 29.95 in 10.0 mi SSE 12.7 mph 26.5 mph N/A   Partly Cloudy
7:55 AM 64.4 °F 57.2 °F 77% 29.94 in 10.0 mi South 12.7 mph 23.0 mph N/A   Clear
8:15 AM 66.2 °F 57.2 °F 73% 29.94 in 10.0 mi SSE 15.0 mph 21.9 mph N/A   Clear
8:35 AM 66.2 °F 57.2 °F 73% 29.93 in 10.0 mi SSE 17.3 mph 24.2 mph N/A   Clear
8:55 AM 66.2 °F 57.2 °F 73% 29.93 in 10.0 mi SSE 19.6 mph 26.5 mph N/A   Clear
9:15 AM 66.2 °F 57.2 °F 73% 29.92 in 10.0 mi SSE 18.4 mph 26.5 mph N/A   Clear
9:35 AM 68.0 °F 57.2 °F 68% 29.92 in 10.0 mi SSE 15.0 mph 26.5 mph N/A   Partly Cloudy
9:55 AM 68.0 °F 57.2 °F 68% 29.92 in 10.0 mi South 18.4 mph 28.8 mph N/A   Mostly Cloudy
10:15 AM 64.4 °F 57.2 °F 77% 29.94 in 10.0 mi South 16.1 mph 29.9 mph N/A   Overcast
10:35 AM 62.6 °F 57.2 °F 82% 29.93 in 8.0 mi South 15.0 mph 21.9 mph N/A   Overcast
10:55 AM 62.6 °F 59.0 °F 88% 29.91 in 10.0 mi SSE 11.5 mph 18.4 mph N/A   Overcast
11:15 AM 64.4 °F 59.0 °F 83% 29.90 in 10.0 mi SSE 13.8 mph 24.2 mph N/A   Overcast
11:35 AM 66.2 °F 59.0 °F 78% 29.90 in 10.0 mi SSE 13.8 mph 19.6 mph N/A   Overcast
11:55 AM 66.2 °F 57.2 °F 73% 29.90 in 10.0 mi South 19.6 mph 32.2 mph N/A   Overcast
12:15 PM 68.0 °F 57.2 °F 68% 29.90 in 10.0 mi South 18.4 mph 29.9 mph N/A   Mostly Cloudy
12:35 PM 66.2 °F 57.2 °F 73% 29.90 in 10.0 mi South 20.7 mph 29.9 mph N/A   Mostly Cloudy
12:55 PM 68.0 °F 57.2 °F 68% 29.89 in 10.0 mi South 17.3 mph 29.9 mph N/A   Mostly Cloudy
1:15 PM 68.0 °F 57.2 °F 68% 29.88 in 10.0 mi SSE 23.0 mph 31.1 mph N/A   Mostly Cloudy
1:35 PM 69.8 °F 57.2 °F 64% 29.87 in 10.0 mi SSE 25.3 mph 34.5 mph N/A   Mostly Cloudy
1:55 PM 69.8 °F 57.2 °F 64% 29.87 in 10.0 mi South 19.6 mph 29.9 mph N/A   Overcast
2:15 PM 69.8 °F 57.2 °F 64% 29.86 in 10.0 mi SSE 19.6 mph 28.8 mph N/A   Overcast
3:15 PM 69.8 °F 59.0 °F 68% 29.87 in 10.0 mi South 12.7 mph 28.8 mph N/A   Overcast
3:35 PM 68.0 °F 59.0 °F 73% 29.88 in 10.0 mi South 19.6 mph 29.9 mph N/A   Overcast
3:55 PM 66.2 °F 59.0 °F 78% 29.88 in 10.0 mi South 15.0 mph 25.3 mph N/A   Overcast
4:15 PM 66.2 °F 60.8 °F 83% 29.89 in 10.0 mi South 19.6 mph 25.3 mph N/A   Overcast
4:35 PM 64.4 °F 59.0 °F 83% 29.89 in 10.0 mi South 15.0 mph 24.2 mph N/A   Overcast
4:55 PM 64.4 °F 60.8 °F 88% 29.89 in 10.0 mi South 11.5 mph 19.6 mph 0.01 in   Overcast
5:15 PM 64.4 °F 60.8 °F 88% 29.89 in 10.0 mi South 11.5 mph 17.3 mph 0.01 in   Mostly Cloudy
5:35 PM 62.6 °F 60.8 °F 94% 29.89 in 8.0 mi SSE 8.1 mph 16.1 mph 0.02 in   Overcast
5:55 PM 62.6 °F 60.8 °F 94% 29.89 in 10.0 mi SSE 10.4 mph - 0.04 in   Overcast
6:15 PM 62.6 °F 60.8 °F 94% 29.89 in 10.0 mi South 9.2 mph 16.1 mph N/A   Overcast
6:35 PM 62.6 °F 60.8 °F 94% 29.88 in 4.0 mi South 11.5 mph 17.3 mph 0.04 in   Overcast
6:55 PM 62.6 °F 59.0 °F 88% 29.89 in 3.0 mi WSW 18.4 mph 25.3 mph 0.13 in   Mostly Cloudy
7:15 PM 57.2 °F 53.6 °F 88% 29.90 in 5.0 mi WSW 12.7 mph - 0.12 in   Overcast
7:35 PM 55.4 °F 51.8 °F 88% 29.92 in 4.0 mi WSW 11.5 mph 21.9 mph 0.13 in   Overcast
7:55 PM 53.6 °F 51.8 °F 94% 29.92 in 2.5 mi West 9.2 mph - 0.15 in   Overcast
8:15 PM 53.6 °F 51.8 °F 94% 29.92 in 10.0 mi WNW 3.5 mph - N/A   Overcast
8:35 PM 53.6 °F 51.8 °F 94% 29.93 in 8.0 mi West 6.9 mph - N/A   Overcast
8:55 PM 53.6 °F 51.8 °F 94% 29.94 in 3.0 mi WSW 5.8 mph - 0.01 in   Overcast
9:15 PM 53.6 °F 51.8 °F 94% 29.93 in 3.0 mi West 4.6 mph - N/A   Overcast
9:35 PM 53.6 °F 51.8 °F 94% 29.94 in 3.0 mi NW 8.1 mph - 0.01 in   Overcast
9:55 PM 51.8 °F 48.2 °F 88% 29.95 in 4.0 mi West 12.7 mph - 0.01 in   Overcast
10:15 PM 50.0 °F 46.4 °F 87% 29.95 in 8.0 mi West 6.9 mph - 0.02 in   Overcast
10:35 PM 48.2 °F 46.4 °F 93% 29.96 in 9.0 mi West 11.5 mph - 0.05 in   Overcast
10:55 PM 48.2 °F 46.4 °F 93% 29.96 in 10.0 mi West 6.9 mph - 0.09 in   Overcast
11:15 PM 48.2 °F 44.6 °F 87% 29.96 in 10.0 mi West 5.8 mph - 0.04 in   Overcast
11:35 PM 48.2 °F 44.6 °F 87% 29.96 in 9.0 mi West 5.8 mph - 0.07 in   Overcast
11:55 PM 48.2 °F 46.4 °F 93% 29.95 in 7.0 mi West 4.6 mph - 0.08 in   Overcast